| time (UTC) | temp F | wind direction | speed knots | gust knots | rain 1hr in | rain 24hr in | rain mn in | humidity % | barometer mb |
| 20260503025341 | 57 | 135 | 6.1 | 7.8 | 0.00 | 0.00 | 0.00 | ||
| 20260503024938 | 57 | 153 | 5.2 | 7.0 | 0.00 | 0.00 | 0.00 | ||
| 20260503024530 | 57 | 156 | 5.2 | 7.0 | 0.00 | 0.00 | 0.00 | ||
| 20260503024128 | 57 | 142 | 4.3 | 6.1 | 0.00 | 0.00 | 0.00 | ||
| 20260503023727 | 57 | 154 | 4.3 | 5.2 | 0.00 | 0.00 | 0.00 | ||
| 20260503023325 | 57 | 131 | 4.3 | 7.0 | 0.00 | 0.00 | 0.00 | ||
| 20260503022923 | 57 | 141 | 4.3 | 6.1 | 0.00 | 0.00 | 0.00 | ||
| 20260503022522 | 57 | 141 | 5.2 | 7.8 | 0.00 | 0.00 | 0.00 | ||
| 20260503022120 | 57 | 146 | 6.1 | 7.8 | 0.00 | 0.00 | 0.00 | ||
| 20260503021719 | 57 | 140 | 6.1 | 8.7 | 0.00 | 0.00 | 0.00 | ||
| 20260503021317 | 57 | 150 | 6.1 | 7.0 | 0.00 | 0.00 | 0.00 | ||
| 20260503020915 | 57 | 154 | 4.3 | 6.1 | 0.00 | 0.00 | 0.00 | ||
| 20260503020507 | 57 | 159 | 3.5 | 5.2 | 0.00 | 0.00 | 0.00 | ||
| 20260503020105 | 58 | 150 | 4.3 | 7.0 | 0.00 | 0.00 | 0.00 | ||
| 20260503015703 | 58 | 143 | 6.1 | 7.8 | 0.00 | 0.00 | 0.00 | ||
| 20260503015305 | 58 | 150 | 5.2 | 7.8 | 0.00 | 0.00 | 0.00 | ||
| 20260503014901 | 58 | 136 | 4.3 | 7.8 | 0.00 | 0.00 | 0.00 | ||
| 20260503014500 | 58 | 126 | 6.1 | 7.8 | 0.00 | 0.00 | 0.00 | ||
| 20260503014057 | 58 | 137 | 6.1 | 10.4 | 0.00 | 0.00 | 0.00 | ||
| 20260503013656 | 58 | 136 | 6.1 | 11.3 | 0.00 | 0.00 | 0.00 | ||
| 20260503013255 | 59 | 132 | 4.3 | 7.8 | 0.00 | 0.00 | 0.00 | ||
| 20260503012853 | 58 | 117 | 6.1 | 13.9 | 0.00 | 0.00 | 0.00 | ||
| 20260503012444 | 58 | 136 | 6.1 | 8.7 | 0.00 | 0.00 | 0.00 | ||
| 20260503012042 | 58 | 120 | 5.2 | 7.0 | 0.00 | 0.00 | 0.00 | ||
| 20260503011641 | 58 | 134 | 4.3 | 9.6 | 0.00 | 0.00 | 0.00 | ||
| 20260503011241 | 57 | 169 | 2.6 | 7.8 | 0.00 | 0.00 | 0.00 | ||
| 20260503010837 | 58 | 143 | 4.3 | 7.0 | 0.00 | 0.00 | 0.00 | ||
| 20260503010435 | 58 | 123 | 5.2 | 8.7 | 0.00 | 0.00 | 0.00 | ||
| 20260503010033 | 58 | 132 | 6.1 | 7.8 | 0.00 | 0.00 | 0.00 | ||
| 20260503005632 | 58 | 120 | 5.2 | 8.7 | 0.00 | 0.00 | 0.00 | ||
| 20260503005231 | 58 | 121 | 5.2 | 7.8 | 0.00 | 0.00 | 0.00 | ||
| 20260503004828 | 58 | 115 | 3.5 | 5.2 | 0.00 | 0.00 | 0.00 | ||
| 20260503004420 | 58 | 121 | 4.3 | 7.0 | 0.00 | 0.00 | 0.00 | ||
| 20260503004018 | 58 | 120 | 4.3 | 6.1 | 0.00 | 0.00 | 0.00 | ||
| 20260503003617 | 58 | 124 | 5.2 | 7.8 | 0.00 | 0.00 | 0.00 | ||
| 20260503003215 | 59 | 138 | 4.3 | 7.8 | 0.00 | 0.00 | 0.00 | ||
| 20260503002813 | 58 | 137 | 5.2 | 9.6 | 0.00 | 0.00 | 0.00 | ||
| 20260503002011 | 58 | 120 | 4.3 | 6.1 | 0.00 | 0.00 | 0.00 | ||
| 20260503001608 | 58 | 129 | 4.3 | 7.8 | 0.00 | 0.00 | 0.00 | ||
| 20260503001207 | 58 | 136 | 2.6 | 5.2 | 0.00 | 0.00 | 0.00 | ||
| 20260503000806 | 58 | 122 | 2.6 | 5.2 | 0.00 | 0.00 | 0.00 | ||
| 20260503000400 | 58 | 125 | 4.3 | 7.0 | 0.00 | 0.00 | 0.00 | ||
| 20260502235956 | 58 | 125 | 3.5 | 7.0 | 0.00 | 0.00 | 0.00 | ||
| 20260502235554 | 58 | 118 | 5.2 | 7.0 | 0.00 | 0.00 | 0.00 | ||
| 20260502235153 | 58 | 117 | 4.3 | 7.0 | 0.00 | 0.00 | 0.00 | ||
| 20260502234751 | 58 | 117 | 3.5 | 6.1 | 0.00 | 0.00 | 0.00 | ||
| 20260502234350 | 58 | 115 | 4.3 | 7.0 | 0.00 | 0.00 | 0.00 | ||
| 20260502233946 | 59 | 118 | 5.2 | 8.7 | 0.00 | 0.00 | 0.00 | ||
| 20260502233545 | 58 | 105 | 5.2 | 7.8 | 0.00 | 0.00 | 0.00 | ||
| 20260502233144 | 59 | 108 | 7.0 | 7.8 | 0.00 | 0.00 | 0.00 | ||
| 20260502232742 | 59 | 106 | 6.1 | 7.0 | 0.00 | 0.00 | 0.00 | ||
| 20260502232332 | 59 | 114 | 6.1 | 8.7 | 0.00 | 0.00 | 0.00 | ||
| 20260502231931 | 59 | 109 | 6.1 | 7.8 | 0.00 | 0.00 | 0.00 | ||
| 20260502231530 | 60 | 108 | 7.0 | 8.7 | 0.00 | 0.00 | 0.00 | ||
| 20260502231128 | 60 | 112 | 6.1 | 8.7 | 0.00 | 0.00 | 0.00 | ||
| 20260502230725 | 59 | 107 | 6.1 | 8.7 | 0.00 | 0.00 | 0.00 | ||
| 20260502230324 | 59 | 108 | 7.0 | 9.6 | 0.00 | 0.00 | 0.00 | ||
| 20260502225922 | 59 | 112 | 5.2 | 7.8 | 0.00 | 0.00 | 0.00 | ||
| 20260502225521 | 58 | 125 | 4.3 | 7.8 | 0.00 | 0.00 | 0.00 | ||
| 20260502225120 | 57 | 135 | 1.7 | 4.3 | 0.00 | 0.00 | 0.00 | ||
| 20260502224717 | 58 | 138 | 3.5 | 6.1 | 0.00 | 0.00 | 0.00 | ||
| 20260502224309 | 59 | 135 | 2.6 | 3.5 | 0.00 | 0.00 | 0.00 | ||
| 20260502223908 | 59 | 117 | 3.5 | 4.3 | 0.00 | 0.00 | 0.00 | ||
| 20260502223507 | 59 | 109 | 4.3 | 6.1 | 0.00 | 0.00 | 0.00 | ||
| 20260502223104 | 59 | 114 | 4.3 | 6.1 | 0.00 | 0.00 | 0.00 | ||
| 20260502222703 | 60 | 111 | 4.3 | 7.8 | 0.00 | 0.00 | 0.00 | ||
| 20260502222305 | 59 | 114 | 5.2 | 7.0 | 0.00 | 0.00 | 0.00 | ||
| 20260502221900 | 59 | 120 | 4.3 | 6.1 | 0.00 | 0.00 | 0.00 | ||
| 20260502221458 | 60 | 126 | 4.3 | 6.1 | 0.00 | 0.00 | 0.00 | ||
| 20260502221057 | 59 | 115 | 5.2 | 7.8 | 0.00 | 0.00 | 0.00 | ||
| 20260502220655 | 59 | 112 | 4.3 | 5.2 | 0.00 | 0.00 | 0.00 | ||
| 20260502220247 | 59 | 114 | 3.5 | 6.1 | 0.00 | 0.00 | 0.00 | ||
| 20260502215844 | 60 | 114 | 3.5 | 5.2 | 0.00 | 0.00 | 0.00 | ||
| 20260502215443 | 59 | 111 | 4.3 | 6.1 | 0.00 | 0.00 | 0.00 | ||
| 20260502215042 | 58 | 106 | 3.5 | 4.3 | 0.00 | 0.00 | 0.00 | ||
| 20260502214640 | 58 | 111 | 2.6 | 4.3 | 0.00 | 0.00 | 0.00 | ||
| 20260502214239 | 58 | 111 | 2.6 | 3.5 | 0.00 | 0.00 | 0.00 | ||
| 20260502213836 | 59 | 98 | 3.5 | 5.2 | 0.00 | 0.00 | 0.00 | ||
| 20260502213435 | 58 | 111 | 4.3 | 5.2 | 0.00 | 0.00 | 0.00 | ||
| 20260502213034 | 58 | 111 | 3.5 | 5.2 | 0.00 | 0.00 | 0.00 | ||
| 20260502212632 | 57 | 111 | 3.5 | 4.3 | 0.00 | 0.00 | 0.00 | ||
| 20260502212223 | 57 | 111 | 2.6 | 3.5 | 0.00 | 0.00 | 0.00 | ||
| 20260502211822 | 57 | 122 | 2.6 | 2.6 | 0.00 | 0.00 | 0.00 | ||
| 20260502211421 | 56 | 135 | 0.9 | 2.6 | 0.00 | 0.00 | 0.00 | ||
| 20260502211020 | 57 | 135 | 2.6 | 3.5 | 0.00 | 0.00 | 0.00 | ||
| 20260502210617 | 57 | 135 | 2.6 | 2.6 | 0.00 | 0.00 | 0.00 | ||
| 20260502210216 | 57 | 135 | 2.6 | 3.5 | 0.00 | 0.00 | 0.00 | ||
| 20260502205814 | 57 | 135 | 1.7 | 3.5 | 0.00 | 0.00 | 0.00 | ||
| 20260502205413 | 58 | 135 | 1.7 | 2.6 | 0.00 | 0.00 | 0.00 | ||
| 20260502204609 | 57 | 135 | 1.7 | 2.6 | 0.00 | 0.00 | 0.00 | ||
| 20260502204201 | 57 | 135 | 1.7 | 2.6 | 0.00 | 0.00 | 0.00 | ||
| 20260502203759 | 57 | 135 | 0.9 | 2.6 | 0.00 | 0.00 | 0.00 | ||
| 20260502203358 | 58 | 135 | 2.6 | 3.5 | 0.00 | 0.00 | 0.00 | ||
| 20260502202956 | 58 | 135 | 0.9 | 1.7 | 0.00 | 0.00 | 0.00 | ||
| 20260502202554 | 58 | 135 | 2.6 | 3.5 | 0.00 | 0.00 | 0.00 | ||
| 20260502202153 | 58 | 157 | 1.7 | 2.6 | 0.00 | 0.00 | 0.00 | ||
| 20260502201751 | 58 | 157 | 1.7 | 2.6 | 0.00 | 0.00 | 0.00 | ||
| 20260502201348 | 59 | 157 | 1.7 | 2.6 | 0.00 | 0.00 | 0.00 | ||
| 20260502200947 | 58 | 157 | 1.7 | 2.6 | 0.00 | 0.00 | 0.00 | ||
| 20260502200545 | 59 | 192 | 3.5 | 6.1 | 0.00 | 0.00 | 0.00 | ||
| 20260502200137 | 59 | 111 | 3.5 | 3.5 | 0.00 | 0.00 | 0.00 | ||
| 20260502195734 | 59 | 111 | 3.5 | 4.3 | 0.00 | 0.00 | 0.00 | ||
| 20260502195333 | 59 | 111 | 2.6 | 3.5 | 0.00 | 0.00 | 0.00 | ||
| 20260502194530 | 60 | 136 | 2.6 | 2.6 | 0.00 | 0.00 | 0.00 | ||
| 20260502194128 | 59 | 157 | 1.7 | 2.6 | 0.00 | 0.00 | 0.00 | ||
| 20260502193726 | 60 | 180 | 1.7 | 1.7 | 0.00 | 0.00 | 0.00 | ||
| 20260502193325 | 62 | 120 | 1.7 | 2.6 | 0.00 | 0.00 | 0.00 | ||
| 20260502192924 | 62 | 69 | 2.6 | 5.2 | 0.00 | 0.00 | 0.00 | ||
| 20260502192522 | 62 | 56 | 3.5 | 6.1 | 0.00 | 0.00 | 0.00 | ||
| 20260502192113 | 63 | 62 | 3.5 | 6.1 | 0.00 | 0.00 | 0.00 | ||
| 20260502191711 | 63 | 62 | 4.3 | 7.0 | 0.00 | 0.00 | 0.00 | ||
| 20260502191310 | 63 | 61 | 5.2 | 7.0 | 0.00 | 0.00 | 0.00 | ||
| 20260502190909 | 63 | 58 | 4.3 | 7.0 | 0.00 | 0.00 | 0.00 | ||
| 20260502190506 | 63 | 45 | 4.3 | 7.0 | 0.00 | 0.00 | 0.00 | ||
| 20260502190105 | 64 | 50 | 5.2 | 7.0 | 0.00 | 0.00 | 0.00 | ||
| 20260502185703 | 64 | 42 | 6.1 | 7.8 | 0.00 | 0.00 | 0.00 | ||
| 20260502185305 | 64 | 47 | 6.1 | 7.8 | 0.00 | 0.00 | 0.00 | ||
| 20260502184900 | 64 | 48 | 6.1 | 7.8 | 0.00 | 0.00 | 0.00 | ||
| 20260502184458 | 65 | 45 | 7.0 | 7.8 | 0.00 | 0.00 | 0.00 | ||
| 20260502184051 | 65 | 44 | 7.0 | 8.7 | 0.00 | 0.00 | 0.00 | ||
| 20260502183649 | 65 | 42 | 5.2 | 7.8 | 0.00 | 0.00 | 0.00 | ||
| 20260502183247 | 65 | 35 | 5.2 | 7.0 | 0.00 | 0.00 | 0.00 | ||
| 20260502182846 | 65 | 40 | 5.2 | 7.0 | 0.00 | 0.00 | 0.00 | ||
| 20260502182444 | 65 | 37 | 4.3 | 7.0 | 0.00 | 0.00 | 0.00 | ||
| 20260502182042 | 66 | 22 | 5.2 | 7.0 | 0.00 | 0.00 | 0.00 | ||
| 20260502181640 | 66 | 21 | 5.2 | 6.1 | 0.00 | 0.00 | 0.00 | ||
| 20260502181238 | 66 | 20 | 5.2 | 7.0 | 0.00 | 0.00 | 0.00 | ||
| 20260502180838 | 66 | 36 | 3.5 | 5.2 | 0.00 | 0.00 | 0.00 | ||
| 20260502180435 | 67 | 40 | 4.3 | 7.8 | 0.00 | 0.00 | 0.00 | ||
| 20260502170357 | 70 | 75 | 4.3 | 7.0 | 0.00 | 0.00 | 0.00 | ||
| 20260502163941 | 72 | 74 | 5.2 | 7.8 | 0.00 | 0.00 | 0.00 | ||
| 20260502163539 | 72 | 72 | 5.2 | 8.7 | 0.00 | 0.00 | 0.00 | ||
| 20260502163137 | 74 | 71 | 4.3 | 7.8 | 0.00 | 0.00 | 0.00 | ||
| 20260502162736 | 75 | 25 | 2.6 | 6.1 | 0.00 | 0.00 | 0.00 | ||
| 20260502162334 | 75 | 35 | 4.3 | 5.2 | 0.00 | 0.00 | 0.00 | ||
| 20260502161933 | 76 | 48 | 3.5 | 4.3 | 0.00 | 0.00 | 0.00 | ||
| 20260502161530 | 78 | 18 | 1.7 | 5.2 | 0.00 | 0.00 | 0.00 | ||
| 20260502161129 | 76 | 27 | 4.3 | 7.8 | 0.00 | 0.00 | 0.00 | ||
| 20260502160728 | 77 | 55 | 2.6 | 4.3 | 0.00 | 0.00 | 0.00 | ||
| 20260502160326 | 75 | 40 | 3.5 | 7.8 | 0.00 | 0.00 | 0.00 | ||
| 20260502152305 | 73 | 52 | 4.3 | 7.0 | 0.00 | 0.00 | 0.00 | ||
| 20260502151854 | 73 | 23 | 4.3 | 7.8 | 0.00 | 0.00 | 0.00 | ||
| 20260502151453 | 73 | 33 | 3.5 | 7.0 | 0.00 | 0.00 | 0.00 | ||
| 20260502151052 | 73 | 54 | 7.0 | 11.3 | 0.00 | 0.00 | 0.00 | ||
| 20260502150649 | 73 | 38 | 4.3 | 7.8 | 0.00 | 0.00 | 0.00 | ||
| 20260502150248 | 73 | 39 | 6.1 | 8.7 | 0.00 | 0.00 | 0.00 | ||
| 20260502130541 | 74 | 74 | 2.6 | 8.7 | 0.00 | 0.00 | 0.00 | ||
| 20260502130139 | 74 | 48 | 1.7 | 4.3 | 0.00 | 0.00 | 0.00 | ||
| 20260502123723 | 73 | 26 | 4.3 | 6.1 | 0.00 | 0.00 | 0.00 | ||
| 20260502123321 | 73 | 70 | 2.6 | 8.7 | 0.00 | 0.00 | 0.00 | ||
| 20260502122919 | 73 | 77 | 4.3 | 6.1 | 0.00 | 0.00 | 0.00 | ||
| 20260502122518 | 73 | 87 | 3.5 | 7.8 | 0.00 | 0.00 | 0.00 | ||
| 20260502122116 | 73 | 63 | 6.1 | 9.6 | 0.00 | 0.00 | 0.00 | ||
| 20260502121715 | 72 | 23 | 6.1 | 9.6 | 0.00 | 0.00 | 0.00 | ||
| 20260502121312 | 73 | 9 | 7.8 | 10.4 | 0.00 | 0.00 | 0.00 | ||
| 20260502120911 | 73 | 28 | 3.5 | 8.7 | 0.00 | 0.00 | 0.00 | ||
| 20260502120510 | 73 | 79 | 4.3 | 5.2 | 0.00 | 0.00 | 0.00 | ||
| 20260502120108 | 73 | 15 | 4.3 | 9.6 | 0.00 | 0.00 | 0.00 | ||
| 20260502115659 | 72 | 9 | 3.5 | 5.2 | 0.00 | 0.00 | 0.00 | ||
| 20260502115257 | 72 | 11 | 7.0 | 10.4 | 0.00 | 0.00 | 0.00 | ||
| 20260502114856 | 71 | 353 | 3.5 | 7.8 | 0.00 | 0.00 | 0.00 | ||
| 20260502114455 | 72 | 19 | 6.1 | 9.6 | 0.00 | 0.00 | 0.00 | ||
| 20260502114052 | 72 | 2 | 2.6 | 9.6 | 0.00 | 0.00 | 0.00 | ||
| 20260502113651 | 72 | 23 | 5.2 | 9.6 | 0.00 | 0.00 | 0.00 | ||
| 20260502112848 | 71 | 345 | 4.3 | 7.0 | 0.00 | 0.00 | 0.00 | ||
| 20260502112447 | 72 | 42 | 5.2 | 8.7 | 0.00 | 0.00 | 0.00 | ||
| 20260502112044 | 72 | 55 | 4.3 | 7.8 | 0.00 | 0.00 | 0.00 | ||
| 20260502111636 | 72 | 354 | 4.3 | 7.0 | 0.00 | 0.00 | 0.00 | ||
| 20260502111235 | 71 | 332 | 7.0 | 9.6 | 0.00 | 0.00 | 0.00 | ||
| 20260502110834 | 71 | 350 | 3.5 | 7.8 | 0.00 | 0.00 | 0.00 | ||
| 20260502110432 | 70 | 1 | 6.1 | 9.6 | 0.00 | 0.00 | 0.00 | ||
| 20260502110030 | 71 | 336 | 3.5 | 7.0 | 0.00 | 0.00 | 0.00 | ||
| 20260502105227 | 71 | 343 | 5.2 | 7.8 | 0.00 | 0.00 | 0.00 | ||
| 20260502104825 | 71 | 4 | 3.5 | 7.0 | 0.00 | 0.00 | 0.00 | ||
| 20260502104424 | 70 | 343 | 3.5 | 6.1 | 0.00 | 0.00 | 0.00 | ||
| 20260502104022 | 71 | 17 | 5.2 | 8.7 | 0.00 | 0.00 | 0.00 | ||
| 20260502103614 | 71 | 359 | 3.5 | 7.0 | 0.00 | 0.00 | 0.00 | ||
| 20260502103211 | 71 | 42 | 1.7 | 4.3 | 0.00 | 0.00 | 0.00 | ||
| 20260502102810 | 71 | 10 | 3.5 | 6.1 | 0.00 | 0.00 | 0.00 | ||
| 20260502102409 | 71 | 8 | 5.2 | 9.6 | 0.00 | 0.00 | 0.00 | ||
| 20260502102007 | 70 | 356 | 3.5 | 7.8 | 0.00 | 0.00 | 0.00 | ||
| 20260502101606 | 69 | 328 | 3.5 | 7.0 | 0.00 | 0.00 | 0.00 | ||
| 20260502101203 | 70 | 31 | 1.7 | 5.2 | 0.00 | 0.00 | 0.00 | ||
| 20260502100802 | 69 | 73 | 8.7 | 11.3 | 0.00 | 0.00 | 0.00 | ||
| 20260502091526 | 69 | 82 | 7.0 | 11.3 | 0.00 | 0.00 | 0.00 | ||
| 20260502091124 | 69 | 55 | 7.0 | 10.4 | 0.00 | 0.00 | 0.00 | ||
| 20260502090723 | 69 | 18 | 4.3 | 8.7 | 0.00 | 0.00 | 0.00 | ||
| 20260502090321 | 69 | 180 | 0.9 | 3.5 | 0.00 | 0.00 | 0.00 | ||
| 20260502071417 | 64 | 225 | 0.0 | 1.7 | 0.00 | 0.00 | 0.00 | ||
| 20260502071015 | 66 | 202 | 0.9 | 2.6 | 0.00 | 0.00 | 0.00 | ||
| 20260502070613 | 68 | 189 | 0.9 | 3.5 | 0.00 | 0.00 | 0.00 | ||
| 20260502070212 | 71 | 157 | 0.9 | 2.6 | 0.00 | 0.00 | 0.00 | ||
| 20260502065810 | 65 | 146 | 1.7 | 3.5 | 0.00 | 0.00 | 0.00 | ||
| 20260502065409 | 64 | 135 | 0.9 | 2.6 | 0.00 | 0.00 | 0.00 | ||
| 20260502065007 | 63 | 135 | 0.0 | 0.9 | 0.00 | 0.00 | 0.00 | ||
| 20260502064605 | 64 | 135 | 0.9 | 2.6 | 0.00 | 0.00 | 0.00 | ||
| 20260502064204 | 65 | 135 | 0.9 | 1.7 | 0.00 | 0.00 | 0.00 | ||
| 20260502063802 | 65 | 135 | 1.7 | 2.6 | 0.00 | 0.00 | 0.00 | ||
| 20260502063354 | 63 | 135 | 0.0 | 1.7 | 0.00 | 0.00 | 0.00 | ||
| 20260502062951 | 64 | 135 | 0.0 | 0.0 | 0.00 | 0.00 | 0.00 | ||
| 20260502062550 | 65 | 135 | 0.0 | 1.7 | 0.00 | 0.00 | 0.00 | ||
| 20260502062149 | 64 | 135 | 0.0 | 2.6 | 0.00 | 0.00 | 0.00 | ||
| 20260502061748 | 65 | 135 | 0.0 | 1.7 | 0.00 | 0.00 | 0.00 | ||
| 20260502061345 | 64 | 135 | 0.0 | 0.9 | 0.00 | 0.00 | 0.00 | ||
| 20260502060944 | 63 | 135 | 0.9 | 1.7 | 0.00 | 0.00 | 0.00 | ||
| 20260502060543 | 62 | 135 | 0.0 | 1.7 | 0.00 | 0.00 | 0.00 | ||
| 20260502060142 | 62 | 135 | 1.7 | 2.6 | 0.00 | 0.00 | 0.00 | ||
| 20260502055738 | 62 | 135 | 0.9 | 1.7 | 0.00 | 0.00 | 0.00 | ||
| 20260502055330 | 60 | 135 | 0.0 | 1.7 | 0.00 | 0.00 | 0.00 | ||
| 20260502054929 | 61 | 135 | 0.0 | 1.7 | 0.00 | 0.00 | 0.00 | ||
| 20260502054528 | 60 | 135 | 0.9 | 1.7 | 0.00 | 0.00 | 0.00 | ||
| 20260502054127 | 60 | 135 | 0.9 | 1.7 | 0.00 | 0.00 | 0.00 | ||
| 20260502053724 | 59 | 135 | 0.9 | 1.7 | 0.00 | 0.00 | 0.00 | ||
| 20260502053323 | 58 | 135 | 0.0 | 1.7 | 0.00 | 0.00 | 0.00 | ||
| 20260502052921 | 58 | 135 | 0.0 | 1.7 | 0.00 | 0.00 | 0.00 | ||
| 20260502052520 | 58 | 135 | 0.9 | 1.7 | 0.00 | 0.00 | 0.00 | ||
| 20260502052118 | 56 | 135 | 0.0 | 0.9 | 0.00 | 0.00 | 0.00 | ||
| 20260502051716 | 56 | 135 | 0.9 | 3.5 | 0.00 | 0.00 | 0.00 | ||
| 20260502051308 | 54 | 135 | 0.9 | 2.6 | 0.00 | 0.00 | 0.00 | ||
| 20260502050906 | 55 | 135 | 1.7 | 4.3 | 0.00 | 0.00 | 0.00 | ||
| 20260502050504 | 54 | 135 | 2.6 | 3.5 | 0.00 | 0.00 | 0.00 | ||
| 20260502045701 | 54 | 135 | 0.0 | 1.7 | 0.00 | 0.00 | 0.00 | ||
| 20260502045300 | 53 | 135 | 0.0 | 0.0 | 0.00 | 0.00 | 0.00 | ||
| 20260502044857 | 53 | 135 | 0.0 | 0.9 | 0.00 | 0.00 | 0.00 | ||
| 20260502044456 | 53 | 135 | 1.7 | 2.6 | 0.00 | 0.00 | 0.00 | ||
| 20260502044055 | 52 | 135 | 0.0 | 1.7 | 0.00 | 0.00 | 0.00 | ||
| 20260502043653 | 52 | 135 | 0.9 | 1.7 | 0.00 | 0.00 | 0.00 | ||
| 20260502043245 | 51 | 135 | 0.0 | 2.6 | 0.00 | 0.00 | 0.00 | ||
| 20260502042842 | 51 | 135 | 1.7 | 3.5 | 0.00 | 0.00 | 0.00 | ||
| 20260502042441 | 52 | 136 | 2.6 | 4.3 | 0.00 | 0.00 | 0.00 | ||
| 20260502042041 | 51 | 157 | 1.7 | 3.5 | 0.00 | 0.00 | 0.00 | ||
| 20260502041639 | 50 | 139 | 1.7 | 5.2 | 0.00 | 0.00 | 0.00 | ||
| 20260502041237 | 50 | 153 | 1.7 | 3.5 | 0.00 | 0.00 | 0.00 | ||
| 20260502040835 | 49 | 157 | 0.9 | 1.7 | 0.00 | 0.00 | 0.00 | ||
| 20260502040434 | 50 | 157 | 1.7 | 4.3 | 0.00 | 0.00 | 0.00 | ||
| 20260502040033 | 49 | 169 | 2.6 | 4.3 | 0.00 | 0.00 | 0.00 | ||
| 20260502035630 | 47 | 161 | 2.6 | 5.2 | 0.00 | 0.00 | 0.00 | ||
| 20260502035222 | 48 | 157 | 2.6 | 4.3 | 0.00 | 0.00 | 0.00 | ||
| 20260502034820 | 47 | 157 | 2.6 | 4.3 | 0.00 | 0.00 | 0.00 | ||
| 20260502034419 | 48 | 157 | 2.6 | 3.5 | 0.00 | 0.00 | 0.00 | ||
| 20260502034017 | 48 | 157 | 3.5 | 5.2 | 0.00 | 0.00 | 0.00 | ||
| 20260502033615 | 48 | 157 | 2.6 | 3.5 | 0.00 | 0.00 | 0.00 | ||
| 20260502033214 | 46 | 157 | 1.7 | 3.5 | 0.00 | 0.00 | 0.00 | ||
| 20260502032812 | 46 | 157 | 2.6 | 3.5 | 0.00 | 0.00 | 0.00 | ||
| 20260502032411 | 47 | 157 | 0.9 | 2.6 | 0.00 | 0.00 | 0.00 | ||
| 20260502032009 | 48 | 157 | 1.7 | 3.5 | 0.00 | 0.00 | 0.00 | ||
| 20260502031607 | 48 | 157 | 2.6 | 6.1 | 0.00 | 0.00 | 0.00 | ||
| 20260502031159 | 47 | 157 | 2.6 | 4.3 | 0.00 | 0.00 | 0.00 | ||
| 20260502030757 | 48 | 157 | 2.6 | 4.3 | 0.00 | 0.00 | 0.00 | ||
| 20260502030355 | 46 | 157 | 2.6 | 4.3 | 0.00 | 0.00 | 0.00 |